Winona, MN

2:37 AM CST on January 22, 2017 (GMT -0600)
Winona Municipal-Conrad

Weather History for KONA - March, 2014

Change the Weather History Date:

Sunday, March 9, 2014

  Actual Average Record
Temperature  
Mean Temperature 30 °F -  
Max Temperature 42 °F 42 °F 58 °F (1977)
Min Temperature 17 °F 20 °F -4 °F (1975)
Degree Days  
Heating Degree Days 36    
Moisture  
Dew Point 24 °F    
Average Humidity 70    
Maximum Humidity 87    
Minimum Humidity 56    
Precipitation  
Precipitation 0.00 in - - ()
Sea Level Pressure  
Sea Level Pressure 29.91 in    
Wind  
Wind Speed 4 mph (SW)    
Max Wind Speed 10 mph    
Max Gust Speed 22 mph    
Visibility 10 miles    
Events      
Averages and records for this station are not official NWS values.
T = Trace of Precipitation, MM = Missing Value Source: NWS Daily Summary

Daily Weather History Graph

Daily Weather History Graph

Search for Another Location

Airport or City:

Trip Planner

Search our weather history database for the weather conditions in past years. The results will help you decide how hot, cold, wet, or windy it might be!

Date:

Astronomy

Mar. 09, 2014 Rise Set
Actual Time 7:29 AM CDT 7:05 PM CDT
Civil Twilight 7:01 AM CDT 7:34 PM CDT
Nautical Twilight 6:27 AM CDT 8:07 PM CDT
Astronomical Twilight 5:53 AM CDT 8:41 PM CDT
Moon 12:49 PM CDT (3/9) 3:04 AM CDT (3/9)
Length of Visible Light 12h 33m
Length of Day
11h 35m
First Quarter, 61% of the Moon is Illuminated
Mar 9
First Quarter
Mar 16
Full
Mar 23
Last Quarter
Mar 30
New
Apr 7
First Quarter

Hourly Weather History & Observations

Time (CDT) Temp. Windchill Dew Point Humidity Pressure Visibility Wind Dir Wind Speed Gust Speed Precip Events Conditions
12:00 AM 19.4 °F 14.3 °F 14.0 °F 80% 30.24 in 10.0 mi WSW 3.5 mph - N/A   Clear
12:19 AM 19.4 °F - 14.0 °F 80% 30.23 in 10.0 mi Calm Calm - N/A   Clear
12:39 AM 19.4 °F 14.3 °F 14.0 °F 80% 30.22 in 10.0 mi SW 3.5 mph - N/A   Clear
1:00 AM 19.4 °F 12.8 °F 14.0 °F 80% 30.22 in 10.0 mi SSW 4.6 mph - N/A   Clear
1:19 AM 19.4 °F - 12.2 °F 74% 30.22 in 10.0 mi Calm Calm - N/A   Clear
1:39 AM 19.4 °F 14.3 °F 12.2 °F 74% 30.21 in 10.0 mi SW 3.5 mph - N/A   Clear
1:59 AM 19.4 °F 14.3 °F 12.2 °F 74% 30.20 in 10.0 mi WSW 3.5 mph - N/A   Clear
3:19 AM 17.6 °F 12.3 °F 12.2 °F 79% 30.19 in 10.0 mi West 3.5 mph - N/A   Clear
3:39 AM 17.6 °F 12.3 °F 12.2 °F 79% 30.18 in 10.0 mi NW 3.5 mph - N/A   Clear
3:59 AM 17.6 °F - 12.2 °F 79% 30.17 in 10.0 mi Calm Calm - N/A   Clear
4:19 AM 17.6 °F 12.3 °F 12.2 °F 79% 30.16 in 10.0 mi WSW 3.5 mph - N/A   Clear
4:39 AM 17.6 °F 12.3 °F 12.2 °F 79% 30.15 in 10.0 mi SW 3.5 mph - N/A   Clear
4:59 AM 17.6 °F - 12.2 °F 79% 30.15 in 10.0 mi Calm Calm - N/A   Clear
5:20 AM 17.6 °F - 12.2 °F 79% 30.14 in 10.0 mi Calm Calm - N/A   Clear
5:39 AM 17.6 °F - 12.2 °F 79% 30.14 in 10.0 mi Calm Calm - N/A   Clear
5:59 AM 19.4 °F - 14.0 °F 80% 30.13 in 10.0 mi Calm Calm - N/A   Clear
6:20 AM 19.4 °F - 14.0 °F 80% 30.12 in 10.0 mi Calm Calm - N/A   Clear
6:39 AM 19.4 °F - 14.0 °F 80% 30.11 in 10.0 mi Calm Calm - N/A   Clear
6:59 AM 21.2 °F - 14.0 °F 74% 30.10 in 10.0 mi Calm Calm - N/A   Clear
7:20 AM 23.0 °F 15.8 °F 15.8 °F 74% 30.09 in 10.0 mi SSE 5.8 mph - N/A   Clear
7:39 AM 23.0 °F 18.4 °F 15.8 °F 74% 30.09 in 10.0 mi South 3.5 mph - N/A   Clear
7:59 AM 23.0 °F 15.8 °F 17.6 °F 80% 30.07 in 10.0 mi SSW 5.8 mph - N/A   Clear
8:20 AM 24.8 °F 16.9 °F 17.6 °F 74% 30.04 in 10.0 mi SSW 6.9 mph - N/A   Clear
8:39 AM 24.8 °F 17.9 °F 17.6 °F 74% 30.03 in 10.0 mi SSW 5.8 mph - N/A   Clear
8:59 AM 26.6 °F 16.8 °F 17.6 °F 69% 30.02 in 10.0 mi SSW 10.4 mph 16.1 mph N/A   Clear
9:19 AM 28.4 °F 20.4 °F 19.4 °F 69% 30.01 in 10.0 mi SW 8.1 mph - N/A   Clear
9:39 AM 30.2 °F 22.6 °F 19.4 °F 64% 30.00 in 10.0 mi SW 8.1 mph - N/A   Clear
9:59 AM 30.2 °F 26.7 °F 19.4 °F 64% 29.98 in 10.0 mi South 3.5 mph - N/A   Clear
10:19 AM 32.0 °F - 19.4 °F 60% 29.96 in 10.0 mi Calm Calm - N/A   Clear
10:39 AM 33.8 °F - 21.2 °F 60% 29.95 in 10.0 mi Calm Calm - N/A   Clear
10:59 AM 33.8 °F - 21.2 °F 60% 29.93 in 10.0 mi Calm Calm - N/A   Clear
11:20 AM 35.6 °F 32.8 °F 23.0 °F 60% 29.92 in 10.0 mi South 3.5 mph - N/A   Clear
11:39 AM 35.6 °F 32.8 °F 23.0 °F 60% 29.90 in 10.0 mi SSW 3.5 mph - N/A   Clear
11:59 AM 37.4 °F 33.8 °F 24.8 °F 60% 29.88 in 10.0 mi SSW 4.6 mph - N/A   Clear
12:20 PM 39.2 °F 33.0 °F 24.8 °F 56% 29.88 in 10.0 mi SW 9.2 mph - N/A   Clear
12:39 PM 41.0 °F 36.4 °F 26.6 °F 57% 29.86 in 10.0 mi SW 6.9 mph - N/A   Clear
12:59 PM 41.0 °F 36.4 °F 26.6 °F 57% 29.84 in 10.0 mi SSW 6.9 mph 17.3 mph N/A   Clear
1:20 PM 41.0 °F 35.2 °F 26.6 °F 57% 29.83 in 10.0 mi SW 9.2 mph 16.1 mph N/A   Clear
1:39 PM 41.0 °F 35.8 °F 26.6 °F 57% 29.81 in 10.0 mi SSW 8.1 mph 17.3 mph N/A   Clear
1:59 PM 41.0 °F 35.8 °F 28.4 °F 61% 29.80 in 10.0 mi SW 8.1 mph 20.7 mph N/A   Clear
2:20 PM 41.0 °F 34.7 °F 28.4 °F 61% 29.80 in 10.0 mi SW 10.4 mph - N/A   Clear
2:39 PM 42.8 °F 38.0 °F 28.4 °F 57% 29.79 in 10.0 mi SW 8.1 mph - N/A   Clear
2:59 PM 42.8 °F 38.6 °F 28.4 °F 57% 29.78 in 10.0 mi WSW 6.9 mph 18.4 mph N/A   Clear
3:20 PM 42.8 °F 37.0 °F 28.4 °F 57% 29.77 in 10.0 mi WSW 10.4 mph 16.1 mph N/A   Clear
3:39 PM 42.8 °F 38.0 °F 30.2 °F 61% 29.77 in 10.0 mi West 8.1 mph 21.9 mph N/A   Clear
3:59 PM 42.8 °F 38.0 °F 30.2 °F 61% 29.77 in 10.0 mi West 8.1 mph - N/A   Clear
4:20 PM 42.8 °F 38.0 °F 30.2 °F 61% 29.76 in 10.0 mi WSW 8.1 mph 18.4 mph N/A   Clear
4:39 PM 42.8 °F 37.0 °F 30.2 °F 61% 29.76 in 10.0 mi WSW 10.4 mph - N/A   Clear
4:59 PM 42.8 °F 38.6 °F 30.2 °F 61% 29.75 in 10.0 mi WSW 6.9 mph - N/A   Clear
5:20 PM 42.8 °F 38.6 °F 30.2 °F 61% 29.74 in 10.0 mi West 6.9 mph - N/A   Clear
5:39 PM 42.8 °F 37.5 °F 30.2 °F 61% 29.74 in 10.0 mi WSW 9.2 mph 19.6 mph N/A   Clear
5:59 PM 42.8 °F 39.3 °F 32.0 °F 66% 29.73 in 10.0 mi WSW 5.8 mph 16.1 mph N/A   Clear
6:20 PM 42.8 °F 37.5 °F 32.0 °F 66% 29.72 in 10.0 mi WSW 9.2 mph - N/A   Clear
6:39 PM 41.0 °F 36.4 °F 32.0 °F 70% 29.73 in 10.0 mi West 6.9 mph - N/A   Clear
6:59 PM 41.0 °F 38.0 °F 32.0 °F 70% 29.73 in 10.0 mi WSW 4.6 mph - N/A   Clear
7:20 PM 41.0 °F 38.0 °F 32.0 °F 70% 29.73 in 10.0 mi WSW 4.6 mph - N/A   Clear
7:39 PM 41.0 °F 39.0 °F 32.0 °F 70% 29.73 in 10.0 mi West 3.5 mph - N/A   Clear
7:59 PM 41.0 °F 39.0 °F 32.0 °F 70% 29.73 in 10.0 mi WSW 3.5 mph - N/A   Clear
8:20 PM 41.0 °F 39.0 °F 32.0 °F 70% 29.72 in 10.0 mi West 3.5 mph - N/A   Clear
8:39 PM 41.0 °F - 32.0 °F 70% 29.72 in 10.0 mi Calm Calm - N/A   Clear
8:59 PM 41.0 °F - 32.0 °F 70% 29.72 in 10.0 mi Calm Calm - N/A   Clear
9:20 PM 41.0 °F - 32.0 °F 70% 29.72 in 10.0 mi Calm Calm - N/A   Clear
9:39 PM 41.0 °F - 32.0 °F 70% 29.72 in 10.0 mi Calm Calm - N/A   Clear
9:59 PM 41.0 °F 39.0 °F 32.0 °F 70% 29.72 in 10.0 mi West 3.5 mph - N/A   Clear
10:20 PM 41.0 °F 39.0 °F 32.0 °F 70% 29.72 in 10.0 mi West 3.5 mph - N/A   Clear
10:39 PM 41.0 °F - 32.0 °F 70% 29.71 in 10.0 mi Calm Calm - N/A   Clear
10:59 PM 41.0 °F 39.0 °F 32.0 °F 70% 29.71 in 10.0 mi West 3.5 mph - N/A   Clear
11:20 PM 41.0 °F - 32.0 °F 70% 29.71 in 10.0 mi Calm Calm - N/A   Scattered Clouds
11:39 PM 41.0 °F - 33.8 °F 76% 29.69 in 10.0 mi Calm Calm - N/A   Scattered Clouds
11:59 PM 41.0 °F - 32.0 °F 70% 29.69 in 10.0 mi Calm Calm - N/A   Scattered Clouds
12:20 AM 35.6 °F - 32.0 °F 87% 29.69 in 10.0 mi Calm Calm - N/A   Mostly Cloudy
12:39 AM 35.6 °F - 32.0 °F 87% 29.69 in 10.0 mi Calm Calm - N/A   Overcast
12:59 AM 35.6 °F - 32.0 °F 87% 29.69 in 10.0 mi Calm Calm - N/A   Mostly Cloudy